Regional Weather Roundup
Issued by NWS

Home | Current Version | Previous Version | Graphics & Text | Print | Product List | Glossary Off
Versions: 1 2 3 4 5 6 7 8 9 10 11 12 13 14 15 16 17 18 19 20 21 22 23 24 25 26 27 28 29 30 31 32 33 34 35 36 37 38 39 40 41 42 43 44 45 46 47 48 49 50

000
ASUS44 KMEG 271410
RWRTN
TENNESSEE HOURLY STATE WEATHER ROUNDUP
NATIONAL WEATHER SERVICE MEMPHIS TN
900 AM CDT SAT MAY 27 2017

TNZ002-004-019-021-049-052-054-088>092-271500-
WEST TENNESSEE

CITY           SKY/WX    TMP DP  RH WIND       PRES   REMARKS
MEMPHIS INTL   CLOUDY    76  72  87 SW8       29.93F
NWS MEMPHIS      N/A     76 N/A N/A MISG        N/A
JACKSON        CLOUDY    76  71  85 SW7       29.94R
DYERSBURG        N/A    N/A N/A N/A MISG        N/A
COVINGTON      CLOUDY    77  72  83 SW12      29.91F
UNION CITY     SUNNY     72  70  94 W6        29.89R
BOLIVAR        CLOUDY    77  70  78 S9G16     29.94S
PARIS          PTSUNNY   70  68  94 S17G30    29.86F FOG
LEXINGTON      MOSUNNY   72  66  83 MISG      29.96S
SELMER         CLOUDY    73  68  83 SW6       29.96S
SAVANNAH       CLOUDY    73  66  78 S6        29.97S
$$

TNZ008-025-027-028-033-062-065-066-271500-
NORTH MIDDLE TENNESSEE

CITY           SKY/WX    TMP DP  RH WIND       PRES   REMARKS
NASHVILLE      CLOUDY    74  64  71 SW9       29.97S
PORTLAND       PTSUNNY   73  66  78 S8        29.95S
CLARKSVILLE    CLOUDY    72  64  76 SW8       29.94R
SMYRNA         CLOUDY    73  65  75 VRB5      29.98S
COOKEVILLE     CLOUDY    72  64  78 S7        29.98F
GALLATIN       PTSUNNY   73  66  78 CALM      29.99S
CROSSVILLE     PTSUNNY   69  62  78 SW5       30.05R
$$

TNZ061-075-076-078-094-096-097-271500-
SOUTH MIDDLE TENNESSEE

CITY           SKY/WX    TMP DP  RH WIND       PRES   REMARKS
FAYETTEVILLE   PTSUNNY   72  64  78 SW6       30.02F
TULLAHOMA      SUNNY     72  63  73 SW6       30.03S
WINCHESTER     CLOUDY    73  64  73 SW7         N/A
MCMINNVILLE    PTSUNNY   72  64  78 SW8       30.01S
COLUMBIA       MOSUNNY   72  64  78 SW12      29.97R
SHELBYVILLE    CLOUDY    72  64  78 S6        30.00F
$$

TNZ017-018-042-046-047-271500-
NORTHEAST TENNESSEE

CITY           SKY/WX    TMP DP  RH WIND       PRES   REMARKS
TRI CITIES     PTSUNNY   71  62  73 CALM      30.02R
ELIZABETHTON   CLOUDY    73  63  68 CALM      30.01R
$$

TNZ012-013-036-069-073-074-271500-
CENTRAL EAST TENNESSEE

CITY           SKY/WX    TMP DP  RH WIND       PRES   REMARKS
KNOXVILLE      CLOUDY    74  63  68 SW12      30.00S
OAK RIDGE      CLOUDY    73  63  70 SW6       30.02R
DOWNTOWN KNOXV CLOUDY    73  66  78 SW8       30.00S
GATLINBURG     CLOUDY    73  63  68 CALM      30.00R
MORRISTOWN     CLOUDY    73  63  68 W9G16     30.00S
JACKSBORO      CLOUDY    70  64  83 CALM      30.03R
$$

TNZ083-085-099-271500-
SOUTHEAST TENNESSEE

CITY           SKY/WX    TMP DP  RH WIND       PRES   REMARKS
CHATTANOOGA    CLOUDY    73  64  73 SW7       30.04R
$$

SKY/WX REPORTED AS FAIR MEANS FEW OR NO CLOUDS BELOW
12 THOUSAND FEET.





USA.gov is the U.S. government's official web portal to all federal, state and local government web resources and services.